����������;��������(kVARh)
2016-10-31 00:00;0
2016-10-31 00:15;0
2016-10-31 00:30;0
2016-10-31 00:45;0,2
2016-10-31 01:00;0,05
2016-10-31 01:15;0,5
2016-10-31 01:30;0,75
2016-10-31 01:45;0,45
2016-10-31 02:00;0,25
2016-10-31 02:15;0
2016-10-31 02:30;0
2016-10-31 02:45;0
2016-10-31 03:00;0
2016-10-31 03:15;0
2016-10-31 03:30;0,25
2016-10-31 03:45;0
2016-10-31 04:00;0
2016-10-31 04:15;0
2016-10-31 04:30;0
2016-10-31 04:45;0,25
2016-10-31 05:00;0
2016-10-31 05:15;0
2016-10-31 05:30;0
2016-10-31 05:45;0
2016-10-31 06:00;0,15
2016-10-31 06:15;0
2016-10-31 06:30;0
2016-10-31 06:45;0
2016-10-31 07:00;0
2016-10-31 07:15;0,05
2016-10-31 07:30;0
2016-10-31 07:45;0
2016-10-31 08:00;0
2016-10-31 08:15;0
2016-10-31 08:30;1,95
2016-10-31 08:45;6,05
2016-10-31 09:00;10,9
2016-10-31 09:15;17,65
2016-10-31 09:30;21,15
2016-10-31 09:45;21
2016-10-31 10:00;21,9
2016-10-31 10:15;26,3
2016-10-31 10:30;25,9
2016-10-31 10:45;26,25
2016-10-31 11:00;28
2016-10-31 11:15;31,35
2016-10-31 11:30;31,95
2016-10-31 11:45;31,05
2016-10-31 12:00;32
2016-10-31 12:15;31,85
2016-10-31 12:30;34,45
2016-10-31 12:45;41
2016-10-31 13:00;39,65
2016-10-31 13:15;43,9
2016-10-31 13:30;40
2016-10-31 13:45;38,45
2016-10-31 14:00;43
2016-10-31 14:15;44,75
2016-10-31 14:30;42,7
2016-10-31 14:45;41,9
2016-10-31 15:00;40,05
2016-10-31 15:15;39,7
2016-10-31 15:30;36,65
2016-10-31 15:45;34,55
2016-10-31 16:00;32,9
2016-10-31 16:15;30,45
2016-10-31 16:30;30,85
2016-10-31 16:45;28
2016-10-31 17:00;26,6
2016-10-31 17:15;27,6
2016-10-31 17:30;27,7
2016-10-31 17:45;28,9
2016-10-31 18:00;24,8
2016-10-31 18:15;22,7
2016-10-31 18:30;19,1
2016-10-31 18:45;15,9
2016-10-31 19:00;15,65
2016-10-31 19:15;10,35
2016-10-31 19:30;9,25
2016-10-31 19:45;9,45
2016-10-31 20:00;6,1
2016-10-31 20:15;5,75
2016-10-31 20:30;5,75
2016-10-31 20:45;7,2
2016-10-31 21:00;6,5
2016-10-31 21:15;7,6
2016-10-31 21:30;8,8
2016-10-31 21:45;6,6
2016-10-31 22:00;4,25
2016-10-31 22:15;1,85
2016-10-31 22:30;2
2016-10-31 22:45;3,8
2016-10-31 23:00;5,7
2016-10-31 23:15;8,5
2016-10-31 23:30;8,2
2016-10-31 23:45;10,45
2016-11-01 00:00;10,65
2016-11-01 00:15;1,25
2016-11-01 00:30;2
2016-11-01 00:45;2,35
2016-11-01 01:00;4,8
2016-11-01 01:15;4,4
2016-11-01 01:30;5,5
2016-11-01 01:45;4,75
2016-11-01 02:00;4,1
2016-11-01 02:15;5,45
2016-11-01 02:30;4,45
2016-11-01 02:45;6,6
2016-11-01 03:00;5,85
2016-11-01 03:15;5,8
2016-11-01 03:30;6,45
2016-11-01 03:45;5,35
2016-11-01 04:00;7,05
2016-11-01 04:15;5,9
2016-11-01 04:30;5,2
2016-11-01 04:45;5,9
2016-11-01 05:00;4,35
2016-11-01 05:15;6,45
2016-11-01 05:30;4
2016-11-01 05:45;5,35
2016-11-01 06:00;5,5
2016-11-01 06:15;5
2016-11-01 06:30;5,5
2016-11-01 06:45;3,75
2016-11-01 07:00;5,7
2016-11-01 07:15;2,95
2016-11-01 07:30;2,55
2016-11-01 07:45;3,95
2016-11-01 08:00;4,8
2016-11-01 08:15;5,5
2016-11-01 08:30;9
2016-11-01 08:45;12,45
2016-11-01 09:00;17,15
2016-11-01 09:15;20,85
2016-11-01 09:30;22,3
2016-11-01 09:45;25,5
2016-11-01 10:00;23,35
2016-11-01 10:15;28
2016-11-01 10:30;28,35
2016-11-01 10:45;29,6
2016-11-01 11:00;34,2
2016-11-01 11:15;30,1
2016-11-01 11:30;34
2016-11-01 11:45;31,95
2016-11-01 12:00;31,1
2016-11-01 12:15;29,75
2016-11-01 12:30;31,15
2016-11-01 12:45;32,2
2016-11-01 13:00;30,35
2016-11-01 13:15;30,7
2016-11-01 13:30;28,45
2016-11-01 13:45;27,55
2016-11-01 14:00;30,65
2016-11-01 14:15;30,2
2016-11-01 14:30;28,65
2016-11-01 14:45;25,95
2016-11-01 15:00;30,85
2016-11-01 15:15;29,35
2016-11-01 15:30;28,3
2016-11-01 15:45;25,95
2016-11-01 16:00;24
2016-11-01 16:15;23,9
2016-11-01 16:30;25,45
2016-11-01 16:45;24,25
2016-11-01 17:00;19,15
2016-11-01 17:15;14,6
2016-11-01 17:30;13,3
2016-11-01 17:45;12,4
2016-11-01 18:00;13,4
2016-11-01 18:15;11
2016-11-01 18:30;12,7
2016-11-01 18:45;11,6
2016-11-01 19:00;11,3
2016-11-01 19:15;11,6
2016-11-01 19:30;8,85
2016-11-01 19:45;9,15
2016-11-01 20:00;7,2
2016-11-01 20:15;7,3
2016-11-01 20:30;5,7
2016-11-01 20:45;8,2
2016-11-01 21:00;5,55
2016-11-01 21:15;4
2016-11-01 21:30;6,9
2016-11-01 21:45;7,35
2016-11-01 22:00;4,4
2016-11-01 22:15;2
2016-11-01 22:30;3,25
2016-11-01 22:45;1,75
2016-11-01 23:00;0
2016-11-01 23:15;0
2016-11-01 23:30;0
2016-11-01 23:45;0
2016-11-02 00:00;0
2016-11-02 00:15;0
2016-11-02 00:30;0,35
2016-11-02 00:45;0,15
2016-11-02 01:00;0,85
2016-11-02 01:15;2,65
2016-11-02 01:30;1,85
2016-11-02 01:45;3,45
2016-11-02 02:00;2,5
2016-11-02 02:15;0,1
2016-11-02 02:30;0,1
2016-11-02 02:45;0,3
2016-11-02 03:00;1,35
2016-11-02 03:15;0,05
2016-11-02 03:30;0
2016-11-02 03:45;0
2016-11-02 04:00;0
2016-11-02 04:15;0
2016-11-02 04:30;0
2016-11-02 04:45;0
2016-11-02 05:00;0
2016-11-02 05:15;0
2016-11-02 05:30;0
2016-11-02 05:45;0
2016-11-02 06:00;0
2016-11-02 06:15;0
2016-11-02 06:30;0
2016-11-02 06:45;0
2016-11-02 07:00;0
2016-11-02 07:15;2,2
2016-11-02 07:30;4,7
2016-11-02 07:45;2,3
2016-11-02 08:00;5,1
2016-11-02 08:15;2,05
2016-11-02 08:30;0,35
2016-11-02 08:45;5,05
2016-11-02 09:00;6,45
2016-11-02 09:15;7,45
2016-11-02 09:30;7,7
2016-11-02 09:45;10,25
2016-11-02 10:00;14,8
2016-11-02 10:15;17,2
2016-11-02 10:30;20
2016-11-02 10:45;18,9
2016-11-02 11:00;22,5
2016-11-02 11:15;25,6
2016-11-02 11:30;29
2016-11-02 11:45;25,35
2016-11-02 12:00;27,4
2016-11-02 12:15;24,3
2016-11-02 12:30;25,15
2016-11-02 12:45;24,2
2016-11-02 13:00;23,35
2016-11-02 13:15;24,75
2016-11-02 13:30;24,9
2016-11-02 13:45;24,35
2016-11-02 14:00;23,55
2016-11-02 14:15;21,95
2016-11-02 14:30;20,4
2016-11-02 14:45;22
2016-11-02 15:00;21,35
2016-11-02 15:15;22,1
2016-11-02 15:30;21,4
2016-11-02 15:45;21,4
2016-11-02 16:00;17,7
2016-11-02 16:15;17,35
2016-11-02 16:30;16,75
2016-11-02 16:45;15,65
2016-11-02 17:00;13,9
2016-11-02 17:15;15,95
2016-11-02 17:30;16,25
2016-11-02 17:45;16,5
2016-11-02 18:00;15,55
2016-11-02 18:15;16,8
2016-11-02 18:30;16,9
2016-11-02 18:45;14,1
2016-11-02 19:00;14,6
2016-11-02 19:15;10,15
2016-11-02 19:30;7,85
2016-11-02 19:45;5,9
2016-11-02 20:00;6
2016-11-02 20:15;2,2
2016-11-02 20:30;4,4
2016-11-02 20:45;3,25
2016-11-02 21:00;1,35
2016-11-02 21:15;3,1
2016-11-02 21:30;1,7
2016-11-02 21:45;2,05
2016-11-02 22:00;1,1
2016-11-02 22:15;2,4
2016-11-02 22:30;2,25
2016-11-02 22:45;3,8
2016-11-02 23:00;2,4
2016-11-02 23:15;0
2016-11-02 23:30;0
2016-11-02 23:45;0
2016-11-03 00:00;0
2016-11-03 00:15;0,1
2016-11-03 00:30;0
2016-11-03 00:45;0
2016-11-03 01:00;0
2016-11-03 01:15;0,05
2016-11-03 01:30;0
2016-11-03 01:45;0
2016-11-03 02:00;0
2016-11-03 02:15;0
2016-11-03 02:30;0,15
2016-11-03 02:45;0
2016-11-03 03:00;0
2016-11-03 03:15;0
2016-11-03 03:30;0
2016-11-03 03:45;0,3
2016-11-03 04:00;0
2016-11-03 04:15;0
2016-11-03 04:30;0
2016-11-03 04:45;0
2016-11-03 05:00;0,2
2016-11-03 05:15;0
2016-11-03 05:30;0
2016-11-03 05:45;0
2016-11-03 06:00;0
2016-11-03 06:15;0,05
2016-11-03 06:30;0
2016-11-03 06:45;0
2016-11-03 07:00;0
2016-11-03 07:15;0
2016-11-03 07:30;0,25
2016-11-03 07:45;0
2016-11-03 08:00;0
2016-11-03 08:15;0,35
2016-11-03 08:30;6,55
2016-11-03 08:45;14,05
2016-11-03 09:00;14,4
2016-11-03 09:15;21
2016-11-03 09:30;23
2016-11-03 09:45;30,4
2016-11-03 10:00;22,7
2016-11-03 10:15;22,75
2016-11-03 10:30;19,05
2016-11-03 10:45;21,85
2016-11-03 11:00;23,7
2016-11-03 11:15;23,25
2016-11-03 11:30;25,85
2016-11-03 11:45;26,3
2016-11-03 12:00;26,4
2016-11-03 12:15;25,5
2016-11-03 12:30;27,4
2016-11-03 12:45;26,2
2016-11-03 13:00;27,3
2016-11-03 13:15;24,75
2016-11-03 13:30;26,75
2016-11-03 13:45;25
2016-11-03 14:00;26,6
2016-11-03 14:15;25,1
2016-11-03 14:30;28,4
2016-11-03 14:45;30,1
2016-11-03 15:00;27,95
2016-11-03 15:15;32,3
2016-11-03 15:30;31,85
2016-11-03 15:45;32,1
2016-11-03 16:00;33,95
2016-11-03 16:15;35,75
2016-11-03 16:30;28,55
2016-11-03 16:45;29,25
2016-11-03 17:00;25,7
2016-11-03 17:15;26,2
2016-11-03 17:30;22,35
2016-11-03 17:45;17,65
2016-11-03 18:00;14
2016-11-03 18:15;12,35
2016-11-03 18:30;12,7
2016-11-03 18:45;13,9
2016-11-03 19:00;15,65
2016-11-03 19:15;9,7
2016-11-03 19:30;8,75
2016-11-03 19:45;6,7
2016-11-03 20:00;7,35
2016-11-03 20:15;2,7
2016-11-03 20:30;2,5
2016-11-03 20:45;4,3
2016-11-03 21:00;5,9
2016-11-03 21:15;8,75
2016-11-03 21:30;8,8
2016-11-03 21:45;7,75
2016-11-03 22:00;6,8
2016-11-03 22:15;7,35
2016-11-03 22:30;5,55
2016-11-03 22:45;3,7
2016-11-03 23:00;0
2016-11-03 23:15;0
2016-11-03 23:30;0
2016-11-03 23:45;0,05
2016-11-04 00:00;0
2016-11-04 00:15;0,1
2016-11-04 00:30;0
2016-11-04 00:45;0,05
2016-11-04 01:00;0
2016-11-04 01:15;0,1
2016-11-04 01:30;0
2016-11-04 01:45;0,1
2016-11-04 02:00;0
2016-11-04 02:15;0
2016-11-04 02:30;0
2016-11-04 02:45;0,15
2016-11-04 03:00;0
2016-11-04 03:15;0,15
2016-11-04 03:30;0
2016-11-04 03:45;0,05
2016-11-04 04:00;0,15
2016-11-04 04:15;0
2016-11-04 04:30;0,15
2016-11-04 04:45;0
2016-11-04 05:00;0,35
2016-11-04 05:15;0
2016-11-04 05:30;0,2
2016-11-04 05:45;0
2016-11-04 06:00;1,1
2016-11-04 06:15;0,8
2016-11-04 06:30;0,8
2016-11-04 06:45;0,05
2016-11-04 07:00;4,3
2016-11-04 07:15;2,05
2016-11-04 07:30;0,55
2016-11-04 07:45;2,45
2016-11-04 08:00;3,45
2016-11-04 08:15;1,65
2016-11-04 08:30;4,5
2016-11-04 08:45;9,7
2016-11-04 09:00;12,6
2016-11-04 09:15;12,4
2016-11-04 09:30;13,55
2016-11-04 09:45;19,1
2016-11-04 10:00;13,75
2016-11-04 10:15;2,05
2016-11-04 10:30;15,75
2016-11-04 10:45;18,3
2016-11-04 11:00;21,8
2016-11-04 11:15;24
2016-11-04 11:30;23,8
2016-11-04 11:45;23,75
2016-11-04 12:00;24,65
2016-11-04 12:15;25,95
2016-11-04 12:30;32,55
2016-11-04 12:45;39,95
2016-11-04 13:00;35,75
2016-11-04 13:15;35,6
2016-11-04 13:30;36,8
2016-11-04 13:45;33,9
2016-11-04 14:00;33,5
2016-11-04 14:15;32,65
2016-11-04 14:30;31,75
2016-11-04 14:45;25,8
2016-11-04 15:00;25
2016-11-04 15:15;25,85
2016-11-04 15:30;25,95
2016-11-04 15:45;22,8
2016-11-04 16:00;22,95
2016-11-04 16:15;22,2
2016-11-04 16:30;24,1
2016-11-04 16:45;20,25
2016-11-04 17:00;18,1
2016-11-04 17:15;17,8
2016-11-04 17:30;17,25
2016-11-04 17:45;16,05
2016-11-04 18:00;14,05
2016-11-04 18:15;14,45
2016-11-04 18:30;14,35
2016-11-04 18:45;12,05
2016-11-04 19:00;10,7
2016-11-04 19:15;7
2016-11-04 19:30;7,65
2016-11-04 19:45;6
2016-11-04 20:00;4,65
2016-11-04 20:15;3,3
2016-11-04 20:30;4,3
2016-11-04 20:45;9,75
2016-11-04 21:00;8,6
2016-11-04 21:15;11,75
2016-11-04 21:30;8,6
2016-11-04 21:45;10,65
2016-11-04 22:00;8,65
2016-11-04 22:15;3,55
2016-11-04 22:30;1,55
2016-11-04 22:45;0,6
2016-11-04 23:00;1,4
2016-11-04 23:15;0,2
2016-11-04 23:30;1,1
2016-11-04 23:45;0
2016-11-05 00:00;0,1
2016-11-05 00:15;0,65
2016-11-05 00:30;0
2016-11-05 00:45;0
2016-11-05 01:00;0
2016-11-05 01:15;0
2016-11-05 01:30;0,1
2016-11-05 01:45;0
2016-11-05 02:00;0
2016-11-05 02:15;0
2016-11-05 02:30;0
2016-11-05 02:45;0
2016-11-05 03:00;0
2016-11-05 03:15;0
2016-11-05 03:30;0
2016-11-05 03:45;0,05
2016-11-05 04:00;0
2016-11-05 04:15;0
2016-11-05 04:30;0
2016-11-05 04:45;0
2016-11-05 05:00;0
2016-11-05 05:15;0,2
2016-11-05 05:30;0,05
2016-11-05 05:45;0
2016-11-05 06:00;0
2016-11-05 06:15;0
2016-11-05 06:30;0
2016-11-05 06:45;0,2
2016-11-05 07:00;0
2016-11-05 07:15;0
2016-11-05 07:30;0
2016-11-05 07:45;0
2016-11-05 08:00;0,05
2016-11-05 08:15;0
2016-11-05 08:30;0
2016-11-05 08:45;0
2016-11-05 09:00;0
2016-11-05 09:15;0,2
2016-11-05 09:30;0
2016-11-05 09:45;0
2016-11-05 10:00;0
2016-11-05 10:15;0
2016-11-05 10:30;0,3
2016-11-05 10:45;0
2016-11-05 11:00;0
2016-11-05 11:15;0
2016-11-05 11:30;0
2016-11-05 11:45;0
2016-11-05 12:00;0
2016-11-05 12:15;0
2016-11-05 12:30;0
2016-11-05 12:45;0
2016-11-05 13:00;0
2016-11-05 13:15;0
2016-11-05 13:30;0
2016-11-05 13:45;0
2016-11-05 14:00;0
2016-11-05 14:15;0
2016-11-05 14:30;0
2016-11-05 14:45;0
2016-11-05 15:00;0,1
2016-11-05 15:15;0
2016-11-05 15:30;0,75
2016-11-05 15:45;1,3
2016-11-05 16:00;0,05
2016-11-05 16:15;0,25
2016-11-05 16:30;0,05
2016-11-05 16:45;0,55
2016-11-05 17:00;0,05
2016-11-05 17:15;0,35
2016-11-05 17:30;0
2016-11-05 17:45;0,35
2016-11-05 18:00;0
2016-11-05 18:15;3,65
2016-11-05 18:30;5,1
2016-11-05 18:45;4,25
2016-11-05 19:00;5,9
2016-11-05 19:15;8,4
2016-11-05 19:30;8,2
2016-11-05 19:45;8,9
2016-11-05 20:00;9,1
2016-11-05 20:15;9,7
2016-11-05 20:30;5,7
2016-11-05 20:45;6,5
2016-11-05 21:00;4
2016-11-05 21:15;6,8
2016-11-05 21:30;7,55
2016-11-05 21:45;6,65
2016-11-05 22:00;6,8
2016-11-05 22:15;9,55
2016-11-05 22:30;9,75
2016-11-05 22:45;9,45
2016-11-05 23:00;6,25
2016-11-05 23:15;3,05
2016-11-05 23:30;1,75
2016-11-05 23:45;2,4
2016-11-06 00:00;0,9
2016-11-06 00:15;1,4
2016-11-06 00:30;1,2
2016-11-06 00:45;2,75
2016-11-06 01:00;3,55
2016-11-06 01:15;3,5
2016-11-06 01:30;4,4
2016-11-06 01:45;2,3
2016-11-06 02:00;4,35
2016-11-06 02:15;4,05
2016-11-06 02:30;3,7
2016-11-06 02:45;3,65
2016-11-06 03:00;3,5
2016-11-06 03:15;5,4
2016-11-06 03:30;5,35
2016-11-06 03:45;5,25
2016-11-06 04:00;5,8
2016-11-06 04:15;3,9
2016-11-06 04:30;5,2
2016-11-06 04:45;4
2016-11-06 05:00;5,45
2016-11-06 05:15;3,65
2016-11-06 05:30;5,05
2016-11-06 05:45;5,1
2016-11-06 06:00;6,5
2016-11-06 06:15;7,4
2016-11-06 06:30;6,65
2016-11-06 06:45;6,75
2016-11-06 07:00;6,8
2016-11-06 07:15;7,95
2016-11-06 07:30;7,75
2016-11-06 07:45;6,6
2016-11-06 08:00;6,4
2016-11-06 08:15;3,55
2016-11-06 08:30;4,25
2016-11-06 08:45;2,95
2016-11-06 09:00;3,95
2016-11-06 09:15;1,45
2016-11-06 09:30;1,45
2016-11-06 09:45;1,3
2016-11-06 10:00;3,25
2016-11-06 10:15;6
2016-11-06 10:30;6,5
2016-11-06 10:45;10,75
2016-11-06 11:00;10,8
2016-11-06 11:15;7,75
2016-11-06 11:30;6,2
2016-11-06 11:45;7,65
2016-11-06 12:00;5,3
2016-11-06 12:15;7,75
2016-11-06 12:30;6,1
2016-11-06 12:45;7,3
2016-11-06 13:00;5,9
2016-11-06 13:15;6,8
2016-11-06 13:30;6,45
2016-11-06 13:45;5,35
2016-11-06 14:00;6,75
2016-11-06 14:15;5,2
2016-11-06 14:30;7,55
2016-11-06 14:45;7,05
2016-11-06 15:00;9,6
2016-11-06 15:15;9,1
2016-11-06 15:30;10,45
2016-11-06 15:45;8,95
2016-11-06 16:00;9,4
2016-11-06 16:15;10,2
2016-11-06 16:30;12,3
2016-11-06 16:45;13,1
2016-11-06 17:00;11,75
2016-11-06 17:15;10,4
2016-11-06 17:30;8,15
2016-11-06 17:45;10,5
2016-11-06 18:00;7,25
2016-11-06 18:15;7,15
2016-11-06 18:30;6,95
2016-11-06 18:45;6,15
2016-11-06 19:00;7,9
2016-11-06 19:15;7,2
2016-11-06 19:30;8,2
2016-11-06 19:45;6
2016-11-06 20:00;6,4
2016-11-06 20:15;6,7
2016-11-06 20:30;5,4
2016-11-06 20:45;6,8
2016-11-06 21:00;8,2
2016-11-06 21:15;10,9
2016-11-06 21:30;10,1
2016-11-06 21:45;9,1
2016-11-06 22:00;8
2016-11-06 22:15;2,7
2016-11-06 22:30;0,9
2016-11-06 22:45;0,25
2016-11-06 23:00;0,1
2016-11-06 23:15;0,55
2016-11-06 23:30;0
2016-11-06 23:45;0,05

